Weather in Lovina

Indonesia     8°09′40″S   115°01′42″E
temp.,
°C
wind,
m/s
gust,
m/s
humid.,
%
clouds,
%
prec.,
mm/h
press.,
hPa
HPBL,
m
6 march, sat
sat623:00+20se1292100 0.0 101129
02:00+20ese1193100 0.0 100935
05:00+20e1197100 0.0 100946
08:00+23ne1293100 0.4 1011181
11:00+26nnw1281100 1.9 1010617
14:00+26nnw128276 5.8 1009606
17:00+25nnw118357 2.3 1009368
20:00+21sse119346 2.8 101044
7 march, sun
sun723:00+21e129135 0.0 101230
02:00+21ese119065 0.0 101036
05:00+21se128484 0.0 100931
08:00+24se117853 0.0 1011113
11:00+26nnw11818 1.3 1011468
14:00+26w118334 6.8 1008534
17:00+24nw119097 3.4 1007355
20:00+22ne119498 7.0 101031
8 march, mon
mon823:00+21ene119496 2.2 101147
02:00+21nne119498 2.7 101048
05:00+21ese1196100 0.1 100945
08:00+23sse128894 0.3 1011141
11:00+28w126538 0.7 1011923
14:00+25w128769 7.2 1009467
17:00+24wsw0191100 6.6 1007242
20:00+21s1196100 10.5 101047
9 march, tue
tue923:00+20sse2296100 2.2 101159
02:00+20sse229597 2.7 100967
05:00+20sse2295100 0.0 100948
08:00+22se1188100 0.0 101192
11:00+27wnw1265100 0.0 10111026
14:00+25nw2282100 1.1 1008611
17:00+22nnw1295100 1.1 1008241
20:00+21nne1198100 2.1 101075
10 march, wed
wed1023:00+20ne119797 3.9 101151
02:00+20ese119698 4.9 101035
05:00+20se129393 0.3 100935
08:00+22sse129094 0.3 101170
11:00+25ese0184100 1.5 1011388
14:00+24nne239096 4.6 1009528
17:00+23nne239594 2.9 1008345
20:00+21nne129897 3.9 1011125